Torna al catalogo

INMARSAT 4-F3

AttivoComunicazioniGEO
NORAD 33278·PAYLOAD·🇮🇲 IM

Lanciato Aug 18, 2008 da Baikonur Cosmodrome

Loading…

TLE

AggiornatoSource: Space-Track

Epoca: Sep 14, 2026, 15:27 UTC

1 33278U 08039A   26257.64401398 -.00000147  00000-0  00000-0 0  9993
2 33278   4.3793  31.7479 0003071 164.0124 291.7296  1.00271226 47447

Traccia INMARSAT 4-F3 in tempo reale con AllMySat

Download on the App Store